Change the Weather History Date:

Friday, September 20, 2013

  Actual Average Record
Temperature  
Mean Temperature 60 °F 62 °F  
Max Temperature 76 °F 78 °F 98 °F (1937)
Min Temperature 43 °F 47 °F 29 °F (1983)
Degree Days  
Heating Degree Days 6    
Growing Degree Days 9 (Base 50)    
Moisture  
Dew Point 45 °F    
Average Humidity 64    
Maximum Humidity 97    
Minimum Humidity 34    
Precipitation  
Precipitation 0.00 in 0.05 in 2.20 in (1965)
Month to date precipitation 1.07 0.97  
Year to date precipitation 10.24 18.68  
Sea Level Pressure  
Sea Level Pressure 30.09 in    
Wind  
Wind Speed 4 mph (SW)    
Max Wind Speed 9 mph    
Max Gust Speed 16 mph    
Visibility 9 miles    
Events      
T = Trace of Precipitation, MM = Missing Value Source: NWS Daily Summary

Daily Weather History Graph

Daily Weather History Graph

Search for Another Location

Airport or City:

Trip Planner

Search our weather history database for the weather conditions in past years. The results will help you decide how hot, cold, wet, or windy it might be!

Date:

Astronomy

Sep. 20, 2013 Rise Set
Actual Time 7:28 AM CDT 7:42 PM CDT
Civil Twilight 7:01 AM CDT 8:09 PM CDT
Nautical Twilight 6:29 AM CDT 8:41 PM CDT
Astronomical Twilight 5:56 AM CDT 9:13 PM CDT
Moon 8:17 PM CDT (9/20) 8:45 AM CDT (9/20)
Length of Visible Light 13h 08m
Length of Day
12h 14m
Full, 98% of the Moon is Illuminated
Sep 20
Full
Sep 26
Last Quarter
Oct 4
New
Oct 11
First Quarter
Oct 18
Full

Hourly Weather History & Observations

Time (CDT) Temp. Windchill Dew Point Humidity Pressure Visibility Wind Dir Wind Speed Gust Speed Precip Events Conditions
12:53 AM 48.9 °F - 46.0 °F 90% 30.14 in 5.0 mi WNW 5.8 mph - N/A   Clear
1:53 AM 50.0 °F - 46.9 °F 89% 30.14 in 5.0 mi WNW 9.2 mph - N/A   Clear
2:53 AM 48.0 °F - 45.0 °F 89% 30.14 in 10.0 mi Calm Calm - N/A   Clear
3:53 AM 46.0 °F - 44.1 °F 93% 30.14 in 10.0 mi Calm Calm - N/A   Clear
4:53 AM 45.0 °F 43.5 °F 43.0 °F 93% 30.14 in 10.0 mi WSW 3.5 mph - N/A   Clear
5:53 AM 45.0 °F 43.5 °F 43.0 °F 93% 30.14 in 10.0 mi West 3.5 mph - 0.01 in   Clear
6:53 AM 43.0 °F 39.5 °F 42.1 °F 97% 30.17 in 8.0 mi SW 5.8 mph - N/A   Clear
7:53 AM 44.1 °F 40.8 °F 42.1 °F 93% 30.18 in 4.0 mi NW 5.8 mph - N/A   Clear
8:53 AM 50.0 °F - 44.1 °F 80% 30.18 in 7.0 mi West 3.5 mph - N/A   Clear
9:53 AM 55.9 °F - 44.1 °F 64% 30.17 in 10.0 mi NNE 4.6 mph - N/A   Clear
10:53 AM 60.1 °F - 43.0 °F 53% 30.17 in 10.0 mi Calm Calm - N/A   Clear
11:53 AM 64.0 °F - 45.0 °F 50% 30.15 in 10.0 mi WSW 5.8 mph - N/A   Clear
12:53 PM 68.0 °F - 46.9 °F 47% 30.12 in 10.0 mi Calm Calm - N/A   Clear
1:53 PM 70.0 °F - 46.0 °F 42% 30.09 in 10.0 mi Calm Calm - N/A   Clear
2:53 PM 72.0 °F - 46.9 °F 41% 30.06 in 8.0 mi WNW 4.6 mph - N/A   Partly Cloudy
3:53 PM 73.0 °F - 46.0 °F 38% 30.04 in 10.0 mi Calm Calm - N/A   Mostly Cloudy
4:53 PM 73.0 °F - 44.1 °F 35% 30.03 in 10.0 mi Calm Calm - N/A   Clear
5:53 PM 75.0 °F - 45.0 °F 34% 30.01 in 10.0 mi South 3.5 mph - N/A   Clear
6:53 PM 73.9 °F - 46.0 °F 37% 30.00 in 10.0 mi South 4.6 mph - N/A   Clear
7:53 PM 66.9 °F - 46.9 °F 49% 30.01 in 10.0 mi SSE 5.8 mph - N/A   Clear
8:53 PM 64.0 °F - 46.0 °F 52% 30.01 in 10.0 mi SE 3.5 mph - N/A   Clear
9:53 PM 61.0 °F - 46.0 °F 58% 30.01 in 10.0 mi South 4.6 mph - N/A   Clear
10:53 PM 57.9 °F - 46.0 °F 65% 30.01 in 10.0 mi South 8.1 mph - N/A   Clear
11:53 PM 61.0 °F - 45.0 °F 56% 30.00 in 10.0 mi SSW 9.2 mph 16.1 mph N/A   Clear